When you browse on this site, cookies collect data to enhance your experience and personalize the content and advertising you see.
Visit our Privacy Policy to learn more. By continuing to use the site, you agree to this use of cookies and data.
  • In Portugal
  • List of Countries
  • For 7 days
  • Water Temperature
  • Satellite Maps
  • Weather Map
  • Weather Widgets
  • user-avatar
    Login

    Hourly Weather Jablow

    Today, 19 December, Wednesday

    Time Temperature Precipitation Wind Pressure Humidity
    00:00 -3°C° 0 mm 2 mps 720 mmHg 92%
    01:00 -4°C° 0 mm 3 mps 720 mmHg 92%
    02:00 -4°C° 0 mm 3 mps 719 mmHg 91%
    03:00 -4°C° 0 mm 3 mps 719 mmHg 90%
    04:00 -4°C° 0 mm 3 mps 719 mmHg 90%
    05:00 -4°C° 0 mm 3 mps 718 mmHg 89%
    06:00 -5°C° 0 mm 3 mps 718 mmHg 89%
    07:00 -5°C° 0 mm 4 mps 718 mmHg 88%
    08:00 -4°C° 0 mm 4 mps 718 mmHg 85%
    09:00 -4°C° 0 mm 4 mps 718 mmHg 83%
    10:00 -4°C° 0 mm 5 mps 718 mmHg 80%
    11:00 -4°C° 0 mm 5 mps 718 mmHg 79%
    12:00 -2°C° 0 mm 5 mps 717 mmHg 77%
    13:00 -2°C° 0 mm 5 mps 717 mmHg 76%
    14:00 -4°C° 0 mm 5 mps 717 mmHg 77%
    15:00 -4°C° 0 mm 5 mps 717 mmHg 78%
    16:00 -3°C° 0 mm 4 mps 716 mmHg 80%
    17:00 -4°C° 0 mm 4 mps 716 mmHg 80%
    18:00 -4°C° 0 mm 4 mps 716 mmHg 80%
    19:00 -4°C° 0 mm 4 mps 716 mmHg 80%
    20:00 -4°C° 0.1 mm 4 mps 716 mmHg 80%
    21:00 -4°C° 0.1 mm 4 mps 715 mmHg 81%
    22:00 -4°C° 0.1 mm 4 mps 715 mmHg 81%
    23:00 -4°C° 0.2 mm 4 mps 715 mmHg 81%

    Tomorrow, 20 December, Thursday

    Time Temperature Precipitation Wind Pressure Humidity
    00:00 -4°C° 0.2 mm 4 mps 715 mmHg 82%
    01:00 -4°C° 0.2 mm 3 mps 715 mmHg 82%
    02:00 -5°C° 0.2 mm 3 mps 715 mmHg 83%
    03:00 -5°C° 0.2 mm 3 mps 715 mmHg 83%
    04:00 -5°C° 0.2 mm 3 mps 715 mmHg 84%
    05:00 -5°C° 0.2 mm 3 mps 715 mmHg 85%
    06:00 -5°C° 0.2 mm 3 mps 715 mmHg 85%
    07:00 -5°C° 0.2 mm 3 mps 715 mmHg 86%
    08:00 -5°C° 0.1 mm 3 mps 715 mmHg 85%
    09:00 -5°C° 0.1 mm 3 mps 715 mmHg 85%
    10:00 -5°C° 0.1 mm 4 mps 715 mmHg 84%
    11:00 -4°C° 0.2 mm 3 mps 715 mmHg 85%
    12:00 -4°C° 0.2 mm 3 mps 715 mmHg 86%
    13:00 -2°C° 0.2 mm 3 mps 715 mmHg 86%
    14:00 -2°C° 0.1 mm 3 mps 715 mmHg 87%
    15:00 -2°C° 0.1 mm 3 mps 715 mmHg 88%
    16:00 -2°C° 0.1 mm 3 mps 715 mmHg 89%
    17:00 -2°C° 0 mm 3 mps 715 mmHg 89%
    18:00 -2°C° 0 mm 3 mps 715 mmHg 89%
    19:00 -2°C° 0 mm 4 mps 715 mmHg 89%
    20:00 -2°C° 0 mm 4 mps 715 mmHg 90%
    21:00 -2°C° 0 mm 4 mps 716 mmHg 90%
    22:00 -2°C° 0 mm 4 mps 716 mmHg 90%
    23:00 -2°C° 0 mm 4 mps 716 mmHg 90%

    Day after tomorrow, 21 December, Friday

    Time Temperature Precipitation Wind Pressure Humidity
    00:00 -2°C° 0 mm 4 mps 716 mmHg 90%
    01:00 -2°C° 0 mm 4 mps 716 mmHg 90%
    02:00 -2°C° 0 mm 4 mps 715 mmHg 90%
    03:00 -2°C° 0 mm 4 mps 715 mmHg 90%
    04:00 -2°C° 0 mm 4 mps 715 mmHg 89%
    05:00 -2°C° 0.1 mm 4 mps 714 mmHg 89%
    06:00 -2°C° 0.1 mm 4 mps 714 mmHg 89%
    07:00 -1°C° 0.1 mm 4 mps 714 mmHg 89%
    08:00 -1°C° 0.1 mm 4 mps 714 mmHg 89%
    09:00 -1°C° 0.1 mm 5 mps 713 mmHg 88%
    10:00 -1°C° 0.1 mm 5 mps 713 mmHg 88%
    11:00 -1°C° 0.2 mm 5 mps 712 mmHg 87%
    12:00 0°C° 0.2 mm 5 mps 711 mmHg 87%
    13:00 0°C° 0.2 mm 5 mps 711 mmHg 86%
    14:00 -1°C° 0.8 mm 6 mps 710 mmHg 85%
    15:00 -1°C° 0.8 mm 6 mps 709 mmHg 85%
    16:00 -1°C° 0.8 mm 7 mps 708 mmHg 84%
    17:00 -1°C° 1.3 mm 7 mps 708 mmHg 85%
    18:00 0°C° 1.3 mm 7 mps 707 mmHg 86%
    19:00 0°C° 1.3 mm 7 mps 707 mmHg 87%
    20:00 +2°C° 0.1 mm 7 mps 707 mmHg 87%
    21:00 +3°C° 0.1 mm 7 mps 707 mmHg 88%
    22:00 +3°C° 0.1 mm 7 mps 707 mmHg 89%
    23:00 +3°C° 0 mm 7 mps 707 mmHg 87%

    22 December, Saturday

    Time Temperature Precipitation Wind Pressure Humidity
    00:00 +2°C° 0 mm 6 mps 707 mmHg 86%
    01:00 +2°C° 0 mm 6 mps 708 mmHg 84%
    02:00 +2°C° 0 mm 6 mps 708 mmHg 84%
    03:00 +1°C° 0 mm 6 mps 708 mmHg 84%
    04:00 +1°C° 0 mm 6 mps 708 mmHg 84%
    05:00 +1°C° 0 mm 5 mps 708 mmHg 84%
    06:00 +1°C° 0 mm 5 mps 708 mmHg 85%
    07:00 +1°C° 0 mm 4 mps 707 mmHg 86%
    08:00 +3°C° 0.1 mm 4 mps 707 mmHg 87%
    09:00 +2°C° 0.1 mm 5 mps 707 mmHg 88%
    10:00 +2°C° 0.1 mm 5 mps 706 mmHg 89%
    11:00 +3°C° 0.3 mm 6 mps 706 mmHg 87%
    12:00 +4°C° 0.3 mm 7 mps 706 mmHg 86%
    13:00 +4°C° 0.3 mm 8 mps 705 mmHg 84%
    14:00 +4°C° 0.1 mm 7 mps 706 mmHg 84%
    15:00 +3°C° 0.1 mm 7 mps 706 mmHg 83%
    16:00 +3°C° 0.1 mm 7 mps 707 mmHg 83%
    17:00 +3°C° 0 mm 6 mps 708 mmHg 83%
    18:00 +2°C° 0 mm 6 mps 708 mmHg 84%
    19:00 +2°C° 0 mm 6 mps 709 mmHg 85%
    20:00 +2°C° 0 mm 6 mps 709 mmHg 84%
    21:00 +2°C° 0 mm 6 mps 709 mmHg 83%
    22:00 +1°C° 0 mm 6 mps 709 mmHg 81%
    23:00 +2°C° 0.3 mm 7 mps 710 mmHg 82%

    23 December, Sunday

    Time Temperature Precipitation Wind Pressure Humidity
    00:00 +2°C° 0.3 mm 7 mps 710 mmHg 83%
    01:00 +1°C° 0.3 mm 8 mps 711 mmHg 83%
    02:00 +1°C° 0.2 mm 8 mps 711 mmHg 84%
    03:00 0°C° 0.2 mm 7 mps 712 mmHg 84%
    04:00 +1°C° 0.2 mm 6 mps 712 mmHg 85%
    05:00 +1°C° 0.1 mm 6 mps 713 mmHg 85%
    06:00 +1°C° 0.1 mm 6 mps 713 mmHg 85%
    07:00 +1°C° 0.1 mm 5 mps 713 mmHg 85%
    08:00 +1°C° 0.1 mm 6 mps 714 mmHg 84%
    09:00 +1°C° 0.1 mm 6 mps 714 mmHg 83%
    10:00 +1°C° 0.1 mm 6 mps 714 mmHg 82%
    11:00 +1°C° 0 mm 6 mps 715 mmHg 81%
    12:00 +2°C° 0 mm 6 mps 715 mmHg 79%
    13:00 +2°C° 0 mm 6 mps 715 mmHg 78%
    14:00 +2°C° 0.1 mm 6 mps 715 mmHg 79%
    15:00 +1°C° 0.1 mm 6 mps 715 mmHg 81%
    16:00 +1°C° 0.1 mm 5 mps 715 mmHg 82%
    17:00 +1°C° 0.1 mm 5 mps 715 mmHg 82%
    18:00 +1°C° 0.1 mm 6 mps 715 mmHg 82%
    19:00 -1°C° 0.1 mm 6 mps 715 mmHg 83%
    20:00 -1°C° 0 mm 6 mps 716 mmHg 83%
    21:00 -1°C° 0 mm 6 mps 716 mmHg 83%
    22:00 +1°C° 0 mm 6 mps 716 mmHg 83%
    23:00 -1°C° 0.1 mm 6 mps 717 mmHg 84%

    24 December, Monday

    Time Temperature Precipitation Wind Pressure Humidity
    00:00 -1°C° 0.1 mm 6 mps 717 mmHg 85%
    01:00 0°C° 0.1 mm 5 mps 717 mmHg 86%
    02:00 0°C° 0.1 mm 5 mps 717 mmHg 87%
    03:00 0°C° 0.1 mm 4 mps 718 mmHg 88%
    04:00 0°C° 0.1 mm 4 mps 718 mmHg 89%
    05:00 0°C° 0.1 mm 3 mps 718 mmHg 90%
    06:00 0°C° 0.1 mm 3 mps 719 mmHg 91%
    07:00 +1°C° 0.1 mm 2 mps 719 mmHg 92%
    08:00 0°C° 0.1 mm 3 mps 719 mmHg 90%
    09:00 +1°C° 0.1 mm 3 mps 720 mmHg 88%
    10:00 0°C° 0.1 mm 4 mps 720 mmHg 86%
    11:00 0°C° 0.1 mm 4 mps 720 mmHg 83%
    12:00 +1°C° 0.1 mm 4 mps 721 mmHg 81%
    13:00 +1°C° 0.1 mm 5 mps 721 mmHg 78%
    14:00 +1°C° 0.1 mm 4 mps 721 mmHg 80%
    15:00 0°C° 0.1 mm 4 mps 721 mmHg 83%
    16:00 +1°C° 0.1 mm 3 mps 721 mmHg 85%
    17:00 0°C° 0 mm 3 mps 721 mmHg 86%
    18:00 0°C° 0 mm 3 mps 721 mmHg 88%
    19:00 +1°C° 0 mm 2 mps 721 mmHg 89%
    20:00 -1°C° 0 mm 2 mps 721 mmHg 90%
    21:00 -1°C° 0 mm 2 mps 722 mmHg 90%
    22:00 -1°C° 0 mm 2 mps 722 mmHg 90%
    23:00 -1°C° 0 mm 2 mps 722 mmHg 90%
    Show more